sat.trackr.live / text

‹ back to catalog

STARLINK-4068

NORAD 52681 · 2022-053AB

PAYLOAD ACTIVE UNKNOWN

§ Identity

Operator
Country
US
Launch date
2022-05-18
Launch site
AFETR
Launch vehicle
Mass (kg)
RCS (m²)

Purposes: comms

External: N2YO · Heavens-Above · Gunter

§ Orbital elements

Epoch: 2026-09-19T12:42:05.465088Z

Period
94.01 min
Inclination
53.1629°
Eccentricity
0.0001292
Mean motion
15.31701294 rev/d
Perigee alt
469.9 km
Apogee alt
471.6 km
Semi-major
6,848.9 km
B*
9.0218e-6
RAAN
347.3376°
Arg perigee
72.2882°
Mean anomaly
287.8260°
Rev number
24,048

§ Raw data

STARLINK-40681 52681U 22053AB  26262.52922992 -.00000085  00000+0  90218-5 0  99902 52681  53.1629 347.3376 0001292  72.2882 287.8260 15.31701294240480

JSON: /api/v1/satellites/52681 · /tle

For live sub-satellite position, see the globe view (requires WebGL).

§ Visibility from observer

Set your observer location to see the next 7 days of passes ≥ 10°. The values pass through the URL so the page stays shareable.

No JS? Fill the form by hand. The geolocation button needs JavaScript.